[[{"header":{"parameterUnit":"m.s-1","parameterCategory":1,"la1":30.2991,"la2":30.254,"lo1":-89.0895,"lo2":-89.0444,"dy":0.0017,"dx":0.0017,"nx":28,"ny":28,"refTime":"2023-09-19T09:00:00:Z","depth":0,"parameterNumber":2,"parameterNumberName":"U-component_of_WINDS"},"data":[0,0,0,0,0,0,0,0,0,0,0,0,0,0,0,0,0,0,0,0,0,0,0,0,0,0,0,0,0,0,0,0,0,0,0,0,0,0,0,0,0,0,0,0,0,0,0,0,0,0,0,0,0,0,0,0,0,0,-1.1417,-1.142,0,-1.1721,-1.1725,-1.1728,-1.1892,-1.1892,-1.1892,-1.1893,-1.2206,-1.2214,-1.2222,0,0,0,0,0,0,0,0,0,0,0,0,0,-1.0977,-1.0985,-1.1417,-1.1421,-1.1425,-1.1721,-1.1725,-1.1729,-1.1892,-1.1892,-1.1893,-1.1893,-1.2203,-1.2213,-1.2222,0,0,0,0,0,0,0,0,0,0,0,0,0,-1.1213,-1.0987,-1.1416,-1.1541,-1.1556,-1.172,-1.1725,-1.173,-1.1892,-1.1892,-1.1893,-1.1893,-1.22,-1.2212,-1.2224,-1.2288,0,0,-1.226,-1.2266,0,0,0,0,0,0,0,0,-1.12,-1.1229,-1.1519,-1.1533,-1.1549,-1.1769,-1.1685,-1.1917,-1.1892,-1.1764,-1.1893,-1.1893,-1.206,-1.2084,-1.214,-1.2302,-1.2316,-1.2261,-1.2269,-1.2274,-1.2277,0,0,0,0,0,0,0,-1.1183,-1.1217,-1.1538,-1.1523,-1.1542,-1.1582,-1.1617,-1.173,-1.1906,-1.1775,-1.1788,-1.1821,-1.2069,-1.2128,-1.2148,-1.232,-1.2261,-1.2272,-1.2279,-1.2284,-1.255,-1.2549,0,0,0,0,0,0,-1.1147,-1.1203,-1.1528,-1.1547,-1.1372,-1.159,-1.1628,-1.1698,-1.1905,-1.1937,-1.1821,-1.1828,-1.2107,-1.2134,-1.216,-1.2248,-1.2274,-1.2285,-1.2292,-1.255,-1.255,-1.2549,0,0,0,0,0,0,-1.1137,-1.1174,-1.1516,-1.1378,-1.1425,-1.1597,-1.1674,-1.1704,-1.1763,-1.1939,-1.1971,-1.1849,-1.2109,-1.2143,-1.2254,-1.2261,-1.2291,-1.2301,-1.255,-1.255,-1.2549,-1.2423,0,0,0,0,0,0,-1.1123,-1.117,-1.1195,-1.1377,-1.1431,-1.1604,-1.1675,-1.1709,-1.1783,-1.1796,-1.1974,-1.2004,-1.2112,-1.2235,-1.2266,-1.2278,-1.2311,-1.255,-1.255,-1.2549,-1.2428,-1.2419,-1.2411,0,0,0,0,0,-1.1107,-1.1148,-1.1196,-1.1234,-1.1467,-1.1604,-1.1635,-1.1757,-1.1783,-1.1811,-1.1924,-1.1999,-1.2255,-1.2245,-1.2282,-1.2297,-1.255,-1.255,-1.255,-1.2431,-1.242,-1.2411,0,0,0,0,0,0,-1.0964,-1.1175,-1.123,-1.1331,-1.1448,-1.1631,-1.167,-1.1742,-1.1855,-1.1862,-1.2009,-1.2048,-1.2145,-1.2233,-1.2218,-1.2369,-1.2411,-1.2417,-1.2308,-1.2299,-1.2291,-1.2268,-1.2321,0,0,0,0,0,-1.0943,-1.1036,-1.1216,-1.1288,-1.1344,-1.1496,-1.1561,-1.1644,-1.1772,-1.1823,-1.1944,-1.2065,-1.2173,-1.2242,-1.2351,-1.2441,-1.2482,-1.247,-1.2461,-1.2454,-1.2458,-1.2511,-1.2507,-1.2548,-1.2548,-1.2548,0,0,-1.0903,-1.103,-1.108,-1.1263,-1.1363,-1.1456,-1.1537,-1.1633,-1.1703,-1.1838,-1.195,-1.2042,-1.2188,-1.2288,-1.2339,-1.2364,-1.2455,-1.2453,-1.2446,-1.2454,-1.251,-1.2506,-1.2502,-1.2548,-1.2548,-1.2548,0,0,-1.0878,-1.0983,-1.1054,-1.1153,-1.1304,-1.1405,-1.1421,-1.1594,-1.1661,-1.1775,-1.1878,-1.1964,-1.2147,-1.2246,-1.232,-1.233,-1.2403,-1.2362,-1.2318,-1.2369,-1.2366,-1.2363,-1.2366,-1.2365,-1.2365,-1.2365,-1.2365,0,-1.0809,-1.0953,-1.1082,-1.1171,-1.1248,-1.1373,-1.1446,-1.1536,-1.1715,-1.1765,-1.1791,-1.2023,-1.213,-1.2254,-1.2256,-1.2313,-1.2336,-1.2342,-1.2355,-1.2355,-1.2355,-1.2359,-1.2359,-1.2359,-1.236,-1.236,-1.2361,0,-1.086,-1.0958,-1.0998,-1.1166,-1.1248,-1.1328,-1.1469,-1.1536,-1.1612,-1.171,-1.1825,-1.1957,-1.2095,-1.2131,-1.2207,-1.2266,-1.2277,-1.2327,-1.2372,-1.2342,-1.2349,-1.2351,-1.235,-1.2352,-1.2354,-1.2356,0,0,-1.0753,-1.099,-1.1003,-1.108,-1.1255,-1.1334,-1.142,-1.1553,-1.1608,-1.1727,-1.1802,-1.1954,-1.2001,-1.2085,-1.2173,-1.2217,-1.2215,-1.2263,-1.2268,-1.2248,-1.2288,-1.2248,-1.2248,-1.2265,-1.2266,-1.2267,-1.2275,0,-1.0751,-1.091,-1.1028,-1.1143,-1.1234,-1.1354,-1.1429,-1.1544,-1.1638,-1.1729,-1.1834,-1.1938,-1.1993,-1.2044,-1.2093,-1.2205,-1.2225,-1.2206,-1.2336,-1.2339,-1.2295,-1.2252,-1.221,-1.2212,-1.2279,-1.2279,-1.228,0,-1.0771,-1.0884,-1.1006,-1.1171,-1.1214,-1.1279,-1.141,-1.1497,-1.163,-1.1695,-1.1787,-1.1878,-1.1974,-1.201,-1.2144,-1.2128,-1.2189,-1.2252,-1.2255,-1.2271,-1.2307,-1.2265,-1.2216,-1.2215,-1.2285,-1.2285,-1.2284,0,-1.0678,-1.0862,-1.0959,-1.1021,-1.1216,-1.1258,-1.1342,-1.1476,-1.1548,-1.1663,-1.1712,-1.1836,-1.1905,-1.1999,-1.2122,-1.2136,-1.2243,-1.2289,-1.2299,-1.2296,-1.2315,-1.2312,-1.2273,-1.2355,-1.2355,-1.2355,-1.2355,0,-1.0664,-1.0733,-1.0919,-1.0979,-1.106,-1.1196,-1.1273,-1.1367,-1.1484,-1.1564,-1.1676,-1.1748,-1.1906,-1.1998,-1.2094,-1.219,-1.222,-1.2275,-1.23,-1.2265,-1.2257,-1.2305,-1.2308,-1.2356,-1.2356,-1.2356,-1.2356,0,-1.0574,-1.0701,-1.0814,-1.0989,-1.1034,-1.1086,-1.1236,-1.1298,-1.1397,-1.1497,-1.1528,-1.1684,-1.1798,-1.1929,-1.2086,-1.2151,-1.2239,-1.2276,-1.2193,-1.2207,-1.2209,-1.2206,-1.2199,-1.2205,-1.2282,-1.2282,-1.2281,0,-1.0555,-1.0611,-1.0791,-1.0852,-1.0931,-1.1028,-1.1102,-1.1238,-1.131,-1.1466,-1.1509,-1.1631,-1.1735,-1.1911,-1.2039,-1.216,-1.22,-1.2189,-1.2219,-1.2181,-1.2198,-1.2192,-1.2198,-1.218,-1.2178,-1.2177,-1.2176,0,-1.0508,-1.0568,-1.067,-1.0793,-1.0878,-1.0982,-1.1091,-1.1135,-1.1292,-1.1368,-1.1485,-1.1566,-1.1726,-1.1845,-1.1981,-1.2068,-1.2148,-1.2166,-1.2174,-1.2138,-1.2087,-1.2113,-1.2169,-1.2165,-1.2166,-1.2167,-1.2168,-1.2168,-1.0453,-1.0508,-1.0642,-1.0752,-1.0848,-1.0947,-1.1013,-1.112,-1.1219,-1.1359,-1.1433,-1.1548,-1.168,-1.1872,-1.1955,-1.2048,-1.2075,-1.2087,-1.2091,-1.2091,-1.208,-1.2073,-1.2073,-1.2074,-1.2074,-1.2075,-1.2075,0,-1.0411,-1.0503,-1.0602,-1.075,-1.0836,-1.0903,-1.1027,-1.1094,-1.1193,-1.1309,-1.1409,-1.1543,-1.1659,-1.1795,-1.1921,-1.1968,-1.2008,-1.1996,-1.1993,-1.2012,-1.205,-1.2029,-1.1962,-1.1962,-1.1962,-1.1962,-1.1962,-1.1962,-1.0398,-1.0494,-1.057,-1.0714,-1.0807,-1.0919,-1.0984,-1.1076,-1.1169,-1.1312,-1.1409,-1.1497,-1.1621,-1.1756,-1.1865,-1.1903,-1.1943,-1.192,-1.1967,-1.2,-1.2009,-1.2019,-1.2,-1.1928,-1.1928,-1.1923,-1.1922,-1.1922]},{"header":{"parameterUnit":"m.s-1","parameterCategory":1,"la1":30.2991,"la2":30.254,"lo1":-89.0895,"lo2":-89.0444,"dy":0.0017,"dx":0.0017,"nx":28,"ny":28,"refTime":"2023-09-19T09:00:00:Z","depth":0,"parameterNumber":3,"parameterNumberName":"V-component_of_WINDS"},"data":[0,0,0,0,0,0,0,0,0,0,0,0,0,0,0,0,0,0,0,0,0,0,0,0,0,0,0,0,0,0,0,0,0,0,0,0,0,0,0,0,0,0,0,0,0,0,0,0,0,0,0,0,0,0,0,0,0,0,0.4406,0.4407,0,0.4467,0.4467,0.4468,0.4548,0.4549,0.4551,0.4552,0.4612,0.4613,0.4613,0,0,0,0,0,0,0,0,0,0,0,0,0,0.436,0.436,0.4406,0.4407,0.4407,0.4466,0.4467,0.4468,0.4548,0.4549,0.4551,0.4553,0.4612,0.4613,0.4613,0,0,0,0,0,0,0,0,0,0,0,0,0,0.4396,0.436,0.4406,0.4454,0.4459,0.4466,0.4467,0.4468,0.4548,0.455,0.4552,0.4553,0.4612,0.4613,0.4613,0.4577,0,0,0.4615,0.4615,0,0,0,0,0,0,0,0,0.4394,0.4398,0.4446,0.4451,0.4457,0.4502,0.4473,0.4505,0.4547,0.4514,0.4552,0.4554,0.4574,0.4578,0.4585,0.458,0.4582,0.4615,0.4615,0.4616,0.4616,0,0,0,0,0,0,0,0.4391,0.4395,0.443,0.4447,0.4453,0.4473,0.4481,0.448,0.4532,0.4517,0.4523,0.4529,0.4577,0.4584,0.4587,0.4583,0.4615,0.4615,0.4616,0.4616,0.4555,0.4553,0,0,0,0,0,0,0.4382,0.4393,0.4428,0.4432,0.443,0.4473,0.4481,0.4485,0.4532,0.4541,0.4527,0.4533,0.4582,0.4586,0.4589,0.4552,0.4616,0.4616,0.4616,0.4557,0.4554,0.4552,0,0,0,0,0,0,0.438,0.4384,0.4426,0.4414,0.4421,0.4471,0.4476,0.4485,0.4492,0.454,0.455,0.4525,0.4584,0.4588,0.458,0.4555,0.4616,0.4617,0.4559,0.4556,0.4553,0.4475,0,0,0,0,0,0,0.4379,0.4383,0.4369,0.4413,0.4421,0.4415,0.4474,0.4485,0.4493,0.4501,0.454,0.4549,0.4586,0.4579,0.4581,0.4557,0.4617,0.4562,0.4558,0.4554,0.448,0.4469,0.446,0,0,0,0,0,0.4377,0.4344,0.4368,0.4372,0.4405,0.4413,0.4418,0.4462,0.4491,0.4478,0.4509,0.4547,0.4557,0.4577,0.458,0.4556,0.4563,0.4559,0.4555,0.4484,0.4471,0.4461,0,0,0,0,0,0,0.4294,0.435,0.4378,0.4358,0.438,0.4427,0.4411,0.4446,0.446,0.4467,0.452,0.4528,0.4514,0.4534,0.4556,0.4525,0.4566,0.4562,0.4512,0.45,0.4491,0.4486,0.4618,0,0,0,0,0,0.4274,0.4276,0.4325,0.4302,0.4313,0.436,0.4365,0.4397,0.4422,0.4432,0.4462,0.4485,0.4494,0.4498,0.4509,0.4484,0.4494,0.4468,0.4459,0.4451,0.4446,0.4437,0.4426,0.4538,0.4538,0.4538,0,0,0.4231,0.4262,0.426,0.4287,0.4308,0.4309,0.4367,0.4366,0.4368,0.4432,0.4426,0.445,0.4479,0.4463,0.4457,0.4479,0.4418,0.4445,0.4438,0.4438,0.4431,0.442,0.4411,0.4535,0.4535,0.4536,0,0,0.4155,0.4178,0.4163,0.4184,0.4216,0.4248,0.4244,0.4286,0.4305,0.4301,0.435,0.4353,0.4366,0.4385,0.4397,0.4332,0.4368,0.4333,0.4283,0.4273,0.4264,0.4257,0.4234,0.4226,0.4329,0.4329,0.4329,0,0.4098,0.4102,0.4151,0.4147,0.4158,0.4218,0.4204,0.4222,0.4255,0.4261,0.4286,0.4306,0.4329,0.432,0.4304,0.4311,0.431,0.4329,0.4262,0.4254,0.4248,0.4228,0.4219,0.4325,0.4325,0.4326,0.4326,0,0.4031,0.4033,0.4017,0.405,0.4059,0.405,0.4098,0.4102,0.4134,0.4164,0.4161,0.4192,0.4211,0.4211,0.4241,0.4206,0.4219,0.4252,0.4295,0.4232,0.4214,0.4206,0.4318,0.432,0.4321,0.4322,0,0,0.3902,0.3963,0.3957,0.3973,0.4014,0.4017,0.4012,0.4032,0.4035,0.4056,0.4054,0.4065,0.4097,0.411,0.4144,0.4135,0.4083,0.4169,0.4171,0.4153,0.4048,0.4023,0.4013,0.4108,0.4107,0.4106,0.4046,0,0.3833,0.3828,0.3873,0.3855,0.3859,0.3918,0.3914,0.3939,0.3967,0.3975,0.4007,0.4015,0.4055,0.4064,0.4058,0.409,0.4063,0.4096,0.4107,0.4106,0.4097,0.4003,0.3976,0.3918,0.4039,0.4038,0.4037,0,0.3752,0.3771,0.3754,0.3799,0.3802,0.3797,0.382,0.3827,0.3857,0.3879,0.3895,0.3935,0.3934,0.3975,0.3975,0.3997,0.4004,0.4021,0.402,0.4023,0.4067,0.4003,0.3901,0.3892,0.4026,0.4027,0.4028,0,0.3661,0.3682,0.3675,0.3687,0.3739,0.3735,0.3756,0.3788,0.3798,0.3819,0.3826,0.3845,0.3856,0.387,0.3915,0.394,0.391,0.3955,0.3928,0.3927,0.3919,0.3918,0.3816,0.3923,0.3923,0.3923,0.3924,0,0.3579,0.3567,0.3635,0.3631,0.3619,0.3673,0.366,0.3687,0.3716,0.3719,0.377,0.3772,0.383,0.3839,0.3874,0.3869,0.3873,0.3891,0.3901,0.3887,0.3884,0.3892,0.3897,0.3921,0.3922,0.3922,0.3923,0,0.3475,0.352,0.3517,0.3567,0.3579,0.3568,0.3612,0.361,0.3643,0.3646,0.365,0.3702,0.3715,0.3761,0.3784,0.3808,0.3793,0.3811,0.3782,0.3788,0.376,0.3762,0.3658,0.3648,0.3761,0.376,0.3759,0,0.342,0.3412,0.3462,0.3468,0.3487,0.3496,0.3507,0.356,0.3569,0.3605,0.3599,0.3617,0.3633,0.3651,0.3691,0.371,0.3729,0.3692,0.3732,0.3719,0.373,0.3729,0.373,0.3683,0.3681,0.368,0.3679,0,0.3318,0.3342,0.3355,0.3378,0.339,0.3409,0.3432,0.3434,0.3494,0.3502,0.3516,0.3529,0.3555,0.3572,0.3598,0.362,0.3659,0.3666,0.3661,0.3647,0.3631,0.364,0.3759,0.3668,0.3669,0.367,0.367,0.3671,0.3237,0.3234,0.3269,0.3283,0.3307,0.3328,0.333,0.3364,0.3377,0.3402,0.3433,0.3444,0.3478,0.3517,0.3537,0.3547,0.3568,0.3561,0.3559,0.3556,0.355,0.363,0.3552,0.3552,0.3553,0.3553,0.3553,0,0.3139,0.3165,0.3178,0.3209,0.3221,0.3258,0.3287,0.3294,0.3303,0.3331,0.3347,0.3365,0.3383,0.3425,0.3447,0.3447,0.3465,0.345,0.3451,0.3456,0.3529,0.3532,0.3435,0.3435,0.3435,0.3435,0.3435,0.3435,0.3089,0.3086,0.3114,0.3123,0.315,0.3162,0.3175,0.3195,0.3218,0.3236,0.3251,0.3279,0.3313,0.3338,0.3357,0.3369,0.3374,0.3354,0.3372,0.3439,0.345,0.3461,0.3464,0.3354,0.3354,0.3298,0.3297,0.3297]}]]